RYR184 LOWW-LOWW

Flight info

Callsign RYR184
Flight time 0h 43m
Altitude 5000
Route MABOD
Aircraft B738/M-SDE2E3FGHIRWXY/LB1

Departure

Time 2026-04-21 16:31
Airport Vienna International Airport (LOWW)

Arrival

Time 2026-04-21 17:15
Airport Vienna International Airport (LOWW)
Time Latitude Longitude Altitude Speed Heading
2026-04-21 16:16 48.12131 16.55356 581 ft 0 kts 296°
2026-04-21 16:26 48.12132 16.55354 581 ft 1 kts 296°
2026-04-21 16:26 48.12141 16.55324 581 ft 4 kts 294°
2026-04-21 16:26 48.12133 16.55281 581 ft 5 kts 225°
2026-04-21 16:27 48.12094 16.55248 582 ft 8 kts 207°
2026-04-21 16:27 48.12024 16.55194 583 ft 13 kts 207°
2026-04-21 16:27 48.11927 16.55187 583 ft 13 kts 186°
2026-04-21 16:27 48.11863 16.55266 583 ft 13 kts 116°
2026-04-21 16:28 48.11814 16.55417 583 ft 18 kts 116°
2026-04-21 16:28 48.11750 16.55620 583 ft 23 kts 116°
2026-04-21 16:28 48.11673 16.55852 584 ft 26 kts 116°
2026-04-21 16:28 48.11596 16.56089 588 ft 25 kts 116°
2026-04-21 16:29 48.11517 16.56333 593 ft 25 kts 117°
2026-04-21 16:29 48.11442 16.56564 600 ft 24 kts 116°
2026-04-21 16:29 48.11364 16.56800 603 ft 26 kts 115°
2026-04-21 16:29 48.11291 16.57023 605 ft 20 kts 116°
2026-04-21 16:30 48.11236 16.57194 604 ft 14 kts 119°
2026-04-21 16:30 48.11165 16.57225 603 ft 10 kts 205°
2026-04-21 16:30 48.11109 16.57183 603 ft 7 kts 206°
2026-04-21 16:30 48.11060 16.57145 603 ft 5 kts 226°
2026-04-21 16:31 48.11063 16.57082 603 ft 10 kts 294°
2026-04-21 16:31 48.11203 16.56653 600 ft 89 kts 296°
2026-04-21 16:31 48.11600 16.55438 600 ft 164 kts 300°
2026-04-21 16:31 48.12107 16.53875 1383 ft 173 kts 294°
2026-04-21 16:32 48.12156 16.52151 2299 ft 177 kts 253°
2026-04-21 16:32 48.11493 16.50491 2742 ft 196 kts 239°
2026-04-21 16:32 48.10678 16.48711 3146 ft 216 kts 238°
2026-04-21 16:32 48.09727 16.46684 3209 ft 258 kts 238°
2026-04-21 16:33 48.08677 16.44360 3715 ft 273 kts 239°
2026-04-21 16:33 48.07623 16.42133 4196 ft 249 kts 229°
2026-04-21 16:33 48.06195 16.40854 4699 ft 248 kts 193°
2026-04-21 16:33 48.04437 16.41034 5009 ft 259 kts 161°
2026-04-21 16:34 48.02801 16.42142 5004 ft 258 kts 154°
2026-04-21 16:34 48.01184 16.43322 4990 ft 256 kts 155°
2026-04-21 16:34 47.99582 16.44480 4992 ft 256 kts 155°
2026-04-21 16:34 47.97989 16.45634 4993 ft 256 kts 155°
2026-04-21 16:35 47.96370 16.46805 4992 ft 256 kts 155°
2026-04-21 16:35 47.94765 16.47965 4853 ft 260 kts 155°
2026-04-21 16:35 47.93124 16.49150 4591 ft 256 kts 155°
2026-04-21 16:35 47.91531 16.50296 4340 ft 254 kts 155°
2026-04-21 16:36 47.89962 16.51466 4085 ft 250 kts 148°
2026-04-21 16:36 47.88819 16.53283 3829 ft 242 kts 112°
2026-04-21 16:36 47.88623 16.55697 3645 ft 229 kts 78°
2026-04-21 16:36 47.89154 16.57826 3495 ft 217 kts 56°
2026-04-21 16:37 47.89957 16.59678 3344 ft 209 kts 54°
2026-04-21 16:37 47.90746 16.61496 3193 ft 206 kts 54°
2026-04-21 16:37 47.91526 16.63294 3044 ft 206 kts 54°
2026-04-21 16:37 47.92439 16.64878 2982 ft 200 kts 28°
2026-04-21 16:38 47.93719 16.65271 2998 ft 182 kts 349°
2026-04-21 16:38 47.94921 16.64844 3018 ft 178 kts 347°
2026-04-21 16:38 47.96119 16.64456 2990 ft 177 kts 346°
2026-04-21 16:38 47.97320 16.63984 2925 ft 177 kts 345°
2026-04-21 16:39 47.98463 16.63513 2700 ft 159 kts 344°
2026-04-21 16:39 47.99464 16.63094 2493 ft 138 kts 344°
2026-04-21 16:39 48.00359 16.62718 2337 ft 134 kts 344°
2026-04-21 16:39 48.01273 16.62333 2158 ft 136 kts 344°
2026-04-21 16:40 48.02182 16.61950 1957 ft 135 kts 344°
2026-04-21 16:40 48.03070 16.61579 1778 ft 134 kts 344°
2026-04-21 16:40 48.03976 16.61199 1582 ft 134 kts 345°
2026-04-21 16:40 48.04874 16.60818 1394 ft 134 kts 344°
2026-04-21 16:41 48.05470 16.60564 1281 ft 133 kts 345°
2026-04-21 16:41 48.06655 16.60064 1045 ft 133 kts 344°
2026-04-21 16:41 48.07548 16.59684 866 ft 133 kts 345°
2026-04-21 16:41 48.08435 16.59312 695 ft 132 kts 345°
2026-04-21 16:42 48.09297 16.58949 592 ft 119 kts 345°
2026-04-21 16:42 48.10196 16.58578 610 ft 162 kts 345°
2026-04-21 16:42 48.11332 16.58091 1256 ft 178 kts 344°
2026-04-21 16:42 48.12517 16.57598 2249 ft 180 kts 344°
2026-04-21 16:43 48.13667 16.57085 3137 ft 170 kts 343°
2026-04-21 16:43 48.14745 16.56622 3985 ft 158 kts 343°
2026-04-21 16:43 48.15848 16.56461 4458 ft 170 kts 15°
2026-04-21 16:43 48.16766 16.57607 4924 ft 186 kts 63°
2026-04-21 16:44 48.16898 16.59627 5028 ft 218 kts 100°
2026-04-21 16:44 48.16449 16.62016 4994 ft 254 kts 105°
2026-04-21 16:44 48.15946 16.64633 4979 ft 263 kts 105°
2026-04-21 16:44 48.15442 16.67278 4990 ft 263 kts 105°
2026-04-21 16:45 48.14903 16.69866 4988 ft 264 kts 113°
2026-04-21 16:45 48.13763 16.72000 4982 ft 265 kts 147°
2026-04-21 16:45 48.12056 16.73066 5009 ft 265 kts 165°
2026-04-21 16:45 48.10284 16.73816 4996 ft 266 kts 165°
2026-04-21 16:46 48.08509 16.74582 4991 ft 265 kts 165°
2026-04-21 16:46 48.06742 16.75343 4991 ft 265 kts 165°
2026-04-21 16:46 48.04978 16.76103 4989 ft 263 kts 165°
2026-04-21 16:46 48.03258 16.76844 4816 ft 256 kts 165°
2026-04-21 16:47 48.01544 16.77397 4616 ft 248 kts 179°
2026-04-21 16:47 47.99856 16.77313 4417 ft 241 kts 185°
2026-04-21 16:47 47.98210 16.77048 4236 ft 237 kts 199°
2026-04-21 16:47 47.96872 16.75726 4062 ft 232 kts 237°
2026-04-21 16:48 47.96213 16.73552 3911 ft 230 kts 255°
2026-04-21 16:48 47.95734 16.71282 3733 ft 227 kts 255°
2026-04-21 16:48 47.95263 16.69100 3585 ft 216 kts 255°
2026-04-21 16:48 47.94863 16.66997 3422 ft 205 kts 267°
2026-04-21 16:49 47.95152 16.65021 3257 ft 197 kts 308°
2026-04-21 16:49 47.96223 16.63976 3114 ft 181 kts 349°
2026-04-21 16:49 47.97446 16.63753 2916 ft 175 kts 348°
2026-04-21 16:49 47.98644 16.63341 2687 ft 177 kts 347°
2026-04-21 16:50 47.99826 16.62925 2445 ft 176 kts 345°
2026-04-21 16:50 48.00949 16.62467 2225 ft 158 kts 345°
2026-04-21 16:50 48.01928 16.62058 1999 ft 136 kts 344°
2026-04-21 16:50 48.02820 16.61684 1826 ft 133 kts 344°
2026-04-21 16:51 48.03721 16.61305 1640 ft 136 kts 344°
2026-04-21 16:51 48.04616 16.60912 1448 ft 133 kts 345°
2026-04-21 16:51 48.05501 16.60553 1289 ft 133 kts 344°
2026-04-21 16:51 48.06404 16.60169 1116 ft 133 kts 345°
2026-04-21 16:52 48.07293 16.59800 914 ft 133 kts 344°
2026-04-21 16:52 48.08172 16.59441 765 ft 132 kts 345°
2026-04-21 16:52 48.09076 16.59043 841 ft 127 kts 343°
2026-04-21 16:52 48.09911 16.58670 1226 ft 133 kts 345°
2026-04-21 16:53 48.10804 16.58310 1762 ft 144 kts 345°
2026-04-21 16:53 48.11843 16.57898 2238 ft 168 kts 345°
2026-04-21 16:53 48.13055 16.57461 2806 ft 193 kts 347°
2026-04-21 16:53 48.14350 16.57075 3575 ft 195 kts 356°
2026-04-21 16:54 48.15664 16.57670 4134 ft 211 kts 37°
2026-04-21 16:54 48.16426 16.59569 4697 ft 229 kts 78°
2026-04-21 16:54 48.16297 16.62079 5001 ft 260 kts 103°
2026-04-21 16:54 48.15782 16.64778 4999 ft 274 kts 105°
2026-04-21 16:55 48.15258 16.67523 4990 ft 274 kts 105°
2026-04-21 16:55 48.14743 16.70231 4990 ft 274 kts 105°
2026-04-21 16:55 48.14058 16.72910 4978 ft 275 kts 123°
2026-04-21 16:55 48.12656 16.74786 4987 ft 275 kts 156°
2026-04-21 16:56 48.10815 16.75450 5011 ft 275 kts 174°
2026-04-21 16:56 48.08905 16.75755 4995 ft 276 kts 175°
2026-04-21 16:56 48.06996 16.76074 4991 ft 275 kts 175°
2026-04-21 16:56 48.05103 16.76390 4991 ft 275 kts 175°
2026-04-21 16:57 48.03239 16.76702 4979 ft 266 kts 175°
2026-04-21 16:57 48.01427 16.76927 4799 ft 257 kts 182°
2026-04-21 16:57 47.99684 16.76802 4626 ft 248 kts 185°
2026-04-21 16:57 47.98539 16.76701 4508 ft 244 kts 185°
2026-04-21 16:58 47.96564 16.75808 4278 ft 233 kts 223°
2026-04-21 16:58 47.95686 16.73863 4121 ft 230 kts 252°
2026-04-21 16:58 47.95192 16.71583 3932 ft 231 kts 255°
2026-04-21 16:58 47.94711 16.69336 3717 ft 224 kts 255°
2026-04-21 16:59 47.94460 16.67128 3469 ft 213 kts 280°
2026-04-21 16:59 47.94995 16.65169 3256 ft 200 kts 315°
2026-04-21 16:59 47.96194 16.64249 3068 ft 197 kts 349°
2026-04-21 16:59 47.97529 16.63881 2898 ft 199 kts 345°
2026-04-21 17:00 47.98876 16.63336 2630 ft 198 kts 345°
2026-04-21 17:00 48.00194 16.62789 2365 ft 196 kts 344°
2026-04-21 17:00 48.01041 16.62434 2187 ft 188 kts 344°
2026-04-21 17:00 48.02593 16.61780 1876 ft 160 kts 344°
2026-04-21 17:01 48.03574 16.61367 1657 ft 136 kts 344°
2026-04-21 17:01 48.04462 16.60992 1521 ft 132 kts 344°
2026-04-21 17:01 48.05351 16.60608 1326 ft 134 kts 343°
2026-04-21 17:01 48.06249 16.60230 1084 ft 133 kts 344°
2026-04-21 17:02 48.07133 16.59852 923 ft 132 kts 344°
2026-04-21 17:02 48.08020 16.59487 776 ft 132 kts 344°
2026-04-21 17:02 48.08905 16.59119 614 ft 132 kts 345°
2026-04-21 17:02 48.09711 16.58774 598 ft 109 kts 342°
2026-04-21 17:03 48.10528 16.58432 602 ft 154 kts 345°
2026-04-21 17:03 48.11640 16.57957 1274 ft 170 kts 345°
2026-04-21 17:03 48.12770 16.57519 2190 ft 176 kts 346°
2026-04-21 17:03 48.13941 16.57087 3158 ft 172 kts 345°
2026-04-21 17:04 48.15082 16.56629 3761 ft 177 kts 345°
2026-04-21 17:04 48.16307 16.56145 4313 ft 187 kts 345°
2026-04-21 17:04 48.17636 16.55622 4647 ft 213 kts 345°
2026-04-21 17:04 48.19171 16.55022 4957 ft 242 kts 346°
2026-04-21 17:05 48.20912 16.54960 4973 ft 260 kts 14°
2026-04-21 17:05 48.22435 16.56374 4995 ft 265 kts 49°
2026-04-21 17:05 48.23206 16.58859 4997 ft 271 kts 80°
2026-04-21 17:05 48.23046 16.61696 5006 ft 274 kts 104°
2026-04-21 17:06 48.22527 16.64412 4998 ft 274 kts 105°
2026-04-21 17:06 48.21947 16.67168 4986 ft 275 kts 114°
2026-04-21 17:06 48.20767 16.69370 4981 ft 275 kts 147°
2026-04-21 17:06 48.19035 16.70482 5011 ft 275 kts 165°
2026-04-21 17:07 48.17796 16.71013 4999 ft 274 kts 165°
2026-04-21 17:07 48.15366 16.72086 4991 ft 274 kts 165°
2026-04-21 17:07 48.13524 16.72722 4992 ft 273 kts 170°
2026-04-21 17:07 48.11667 16.73296 4992 ft 273 kts 169°
2026-04-21 17:08 48.09824 16.73863 4992 ft 274 kts 170°
2026-04-21 17:08 48.07949 16.74430 4992 ft 275 kts 169°
2026-04-21 17:08 48.06087 16.74990 4992 ft 274 kts 169°
2026-04-21 17:08 48.04258 16.75538 4961 ft 263 kts 170°
2026-04-21 17:09 48.00780 16.76452 4647 ft 244 kts 181°
2026-04-21 17:09 47.99122 16.76345 4458 ft 238 kts 185°
2026-04-21 17:09 47.97511 16.75940 4252 ft 235 kts 207°
2026-04-21 17:10 47.96345 16.74351 4100 ft 231 kts 245°
2026-04-21 17:10 47.95783 16.72107 3951 ft 228 kts 255°
2026-04-21 17:10 47.95319 16.69873 3739 ft 224 kts 255°
2026-04-21 17:10 47.94982 16.67676 3525 ft 214 kts 273°
2026-04-21 17:11 47.95440 16.65657 3311 ft 202 kts 309°
2026-04-21 17:11 47.96497 16.64468 3129 ft 186 kts 340°
2026-04-21 17:11 47.97665 16.63929 2873 ft 169 kts 341°
2026-04-21 17:11 47.98766 16.63411 2659 ft 165 kts 343°
2026-04-21 17:12 47.99501 16.63092 2517 ft 165 kts 343°
2026-04-21 17:12 48.01571 16.62212 2056 ft 133 kts 342°
2026-04-21 17:12 48.02447 16.61839 1944 ft 136 kts 345°
2026-04-21 17:13 48.03358 16.61459 1732 ft 135 kts 343°
2026-04-21 17:13 48.04254 16.61075 1536 ft 134 kts 344°
2026-04-21 17:13 48.05142 16.60713 1320 ft 134 kts 343°
2026-04-21 17:13 48.06036 16.60327 1138 ft 133 kts 345°
2026-04-21 17:14 48.06937 16.59951 966 ft 134 kts 345°
2026-04-21 17:14 48.07821 16.59577 796 ft 133 kts 345°
2026-04-21 17:14 48.08712 16.59202 649 ft 132 kts 345°
2026-04-21 17:14 48.09537 16.58855 596 ft 98 kts 345°
2026-04-21 17:15 48.10015 16.58650 600 ft 63 kts 344°
2026-04-21 17:15 48.10426 16.58476 600 ft 56 kts 345°
2026-04-21 17:15 48.10767 16.58333 598 ft 46 kts 345°
2026-04-21 17:15 48.10978 16.58199 597 ft 27 kts 317°
2026-04-21 17:16 48.11070 16.57990 597 ft 22 kts 297°
2026-04-21 17:16 48.11142 16.57777 597 ft 23 kts 297°
2026-04-21 17:16 48.11208 16.57565 599 ft 22 kts 296°
2026-04-21 17:16 48.11276 16.57358 603 ft 23 kts 298°
2026-04-21 17:17 48.11344 16.57147 606 ft 23 kts 297°
2026-04-21 17:17 48.11416 16.56923 606 ft 24 kts 296°
2026-04-21 17:17 48.11493 16.56688 603 ft 23 kts 296°
2026-04-21 17:17 48.11560 16.56479 599 ft 22 kts 296°
2026-04-21 17:18 48.11631 16.56265 592 ft 22 kts 296°
2026-04-21 17:18 48.11698 16.56061 588 ft 22 kts 298°
2026-04-21 17:18 48.11763 16.55868 584 ft 18 kts 294°
2026-04-21 17:18 48.11809 16.55706 583 ft 15 kts 293°
2026-04-21 17:19 48.11854 16.55572 583 ft 15 kts 298°
2026-04-21 17:19 48.11900 16.55456 583 ft 11 kts 338°
2026-04-21 17:19 48.11988 16.55493 583 ft 15 kts 25°
2026-04-21 17:19 48.12083 16.55561 583 ft 13 kts 27°
2026-04-21 17:20 48.12131 16.55576 583 ft 5 kts 317°
2026-04-21 17:20 48.12149 16.55533 583 ft 2 kts 297°
2026-04-21 17:20 48.12149 16.55531 583 ft 0 kts 297°